Home   Weather   Pembroke Pines   Past weeks

Flag for USA Past Weather in Pembroke Pines, Florida, USA — Yesterday and Last 2 Weeks

Now
80 °F

Scattered clouds.


Feels Like: 84 °F
Forecast: 72 / 80 °F
Wind: 7 mph from Northwest

Location: North Perry Airport

Current Time: Dec 8, 2016 at 11:29:29 am

Latest Report: Dec 8, 2016 at 10:53 am


Visibility: 10 mi

Pressure: 30.13 "Hg

Humidity: 76%

Dew Point: 72 °F

Location of Pembroke PinesLocation

Past Weather in Pembroke Pines — Graph

°F

Pembroke Pines Temperature Yesterday

Maximum temperature yesterday: 84 °F (at 1:53 pm)
Minimum temperature yesterday: 73 °F (at 5:53 am)
Average temperature yesterday: 78 °F

High & Low Weather Summary for the Past Weeks

 TemperatureHumidityPressure
High87 °F (Dec 6, 11:53 am)97% (Dec 8, 4:53 am)30.23 "Hg (Dec 8, 4:53 am)
Low63 °F (Nov 27, 6:53 am)40% (Nov 26, 1:53 pm)29.92 "Hg (Dec 6, 2:53 pm)
Average77 °F74%30.05 "Hg
* Reported Nov 23 9:53 am — Dec 8 9:53 am, Pembroke Pines, Weather by CustomWeather, © 2016

Note: Actual official high and low records may vary slightly from our data, if they occured in-between our weather recording intervals... More about our weather records

Advertising

Pembroke Pines Weather History for the Previous 24 Hours

Scroll right to see more
 ConditionsComfort  
Time TempWeatherWind HumidityBarometerVisibility
9:53 am
Thu, Dec 8
76 °FPartly sunny.8 mph88%30.13 "Hg10 mi
9:04 am77 °FBroken clouds.No wind88%30.12 "Hg10 mi
8:53 am77 °FPartly sunny.5 mph90%30.12 "Hg8 mi
7:53 am75 °FFog.No wind96%30.10 "Hg6 mi
6:53 am74 °FFog.No wind97%30.09 "Hg6 mi
5:53 am73 °FFog.3 mph97%30.07 "Hg6 mi
4:53 am74 °FFog.No wind97%30.06 "Hg6 mi
3:53 am75 °FOvercast.5 mph96%30.05 "Hg8 mi
2:53 am76 °FMostly cloudy.3 mph94%30.06 "Hg8 mi
1:53 am76 °FMostly cloudy.No wind94%30.06 "Hg9 mi
12:53 am77 °FMostly cloudy.No wind90%30.07 "Hg8 mi
11:53 pm
Wed, Dec 7
78 °FThunderstorms. Mostly cloudy.No wind84%30.08 "Hg10 mi
10:53 pm78 °FOvercast.No wind84%30.09 "Hg10 mi
9:53 pm78 °FPassing clouds.3 mph84%30.09 "Hg10 mi
8:53 pm79 °FMostly cloudy.No wind82%30.09 "Hg10 mi
7:53 pm78 °FOvercast.5 mph82%30.08 "Hg10 mi
6:53 pm79 °FOvercast.5 mph79%30.07 "Hg10 mi
5:53 pm79 °FOvercast.6 mph77%30.05 "Hg10 mi
4:53 pm80 °FScattered clouds.7 mph74%30.03 "Hg10 mi
3:53 pm82 °FScattered clouds.6 mph70%30.01 "Hg10 mi
2:53 pm84 °FSunny.6 mph65%30.01 "Hg10 mi
1:53 pm84 °FPassing clouds.6 mph65%30.01 "Hg10 mi
12:53 pm83 °FPassing clouds.6 mph68%30.03 "Hg10 mi
11:53 am79 °FSunny.5 mph77%30.06 "Hg10 mi
Weather by CustomWeather, © 2016

See weather overviewHow to use our weather pages